[[{"header":{"parameterUnit":"m.s-1","parameterCategory":1,"la1":30.2991,"la2":30.254,"lo1":-89.0895,"lo2":-89.0444,"dy":0.0017,"dx":0.0017,"nx":28,"ny":28,"refTime":"2024-07-25T03:00:00:Z","depth":0,"parameterNumber":2,"parameterNumberName":"U-component_of_WINDS"},"data":[0,0,0,0,0,0,0,0,0,0,0,0,0,0,0,0,0,0,0,0,0,0,0,0,0,0,0,0,0,0,0,0,0,0,0,0,0,0,0,0,0,0,0,0,0,0,0,0,0,0,0,0,0,0,0,0,0,0,1.6096,1.61,0,1.6393,1.6396,1.64,1.6529,1.6529,1.6528,1.6528,1.6836,1.6845,1.6853,0,0,0,0,0,0,0,0,0,0,0,0,0,1.5645,1.5653,1.6096,1.61,1.6104,1.6393,1.6397,1.6401,1.6529,1.6529,1.6528,1.6528,1.6833,1.6843,1.6854,0,0,0,0,0,0,0,0,0,0,0,0,0,1.5881,1.5655,1.6095,1.6202,1.6215,1.6392,1.6397,1.6402,1.6529,1.6529,1.6528,1.6527,1.683,1.6843,1.6855,1.6949,0,0,1.6895,1.69,0,0,0,0,0,0,0,0,1.5868,1.5898,1.6183,1.6195,1.621,1.6423,1.6351,1.6585,1.653,1.641,1.6528,1.6527,1.67,1.6723,1.6781,1.6964,1.6977,1.6896,1.6904,1.6909,1.6913,0,0,0,0,0,0,0,1.5851,1.5886,1.6214,1.6187,1.6203,1.6237,1.627,1.6396,1.6555,1.6421,1.6431,1.6464,1.6707,1.6768,1.6789,1.6981,1.6896,1.6907,1.6915,1.692,1.7258,1.7259,0,0,0,0,0,0,1.5817,1.5871,1.6204,1.6223,1.6033,1.6246,1.6282,1.6356,1.6554,1.6584,1.6464,1.6469,1.6746,1.6774,1.68,1.6924,1.6909,1.6921,1.6929,1.7256,1.7258,1.7259,0,0,0,0,0,0,1.5806,1.5845,1.6192,1.605,1.6097,1.6254,1.6335,1.6362,1.6423,1.6587,1.6617,1.6497,1.6747,1.6782,1.6911,1.6936,1.6927,1.6939,1.7255,1.7257,1.7259,1.7171,0,0,0,0,0,0,1.5793,1.5841,1.5877,1.605,1.6104,1.6297,1.6337,1.6368,1.6444,1.6453,1.6626,1.6654,1.6749,1.6891,1.6924,1.6954,1.6949,1.7254,1.7256,1.7258,1.7172,1.7169,1.7167,0,0,0,0,0,1.5776,1.5841,1.5878,1.5917,1.6152,1.6298,1.6329,1.6436,1.6446,1.6484,1.659,1.6648,1.6928,1.6903,1.6941,1.6976,1.7252,1.7255,1.7258,1.7173,1.717,1.7167,0,0,0,0,0,0,1.5668,1.5866,1.5909,1.6031,1.6146,1.6319,1.6371,1.6429,1.6545,1.6549,1.6678,1.6716,1.6834,1.6918,1.6887,1.7078,1.7095,1.7106,1.7018,1.7016,1.7014,1.6991,1.696,0,0,0,0,0,1.5658,1.5759,1.5927,1.6018,1.6074,1.6212,1.628,1.6352,1.6477,1.6527,1.6643,1.6763,1.6879,1.6952,1.7068,1.7185,1.7225,1.7228,1.7225,1.7222,1.723,1.7299,1.7303,1.7268,1.7268,1.7268,0,0,1.564,1.576,1.5816,1.6,1.6098,1.62,1.6252,1.6359,1.6437,1.6544,1.6673,1.6761,1.6905,1.7029,1.7089,1.7103,1.7248,1.7225,1.7222,1.7232,1.7302,1.7305,1.7308,1.727,1.727,1.7269,0,0,1.5658,1.5758,1.5846,1.5943,1.609,1.6182,1.6202,1.6367,1.643,1.6561,1.6644,1.6739,1.6935,1.7034,1.711,1.7166,1.7224,1.72,1.7186,1.7253,1.7255,1.7258,1.7279,1.7285,1.7207,1.7207,1.7207,0,1.5616,1.5773,1.5884,1.5986,1.6065,1.6166,1.6256,1.6346,1.6523,1.6576,1.6588,1.6837,1.694,1.7089,1.7102,1.716,1.7189,1.7181,1.7246,1.725,1.7255,1.7276,1.7283,1.7203,1.7203,1.7204,1.7204,0,1.5715,1.5822,1.5876,1.6043,1.6129,1.6224,1.6351,1.6424,1.6489,1.658,1.6713,1.684,1.6984,1.7024,1.7089,1.7183,1.7187,1.722,1.7241,1.7252,1.7274,1.7283,1.7197,1.7199,1.72,1.7201,0,0,1.5673,1.5901,1.5919,1.5997,1.6167,1.6253,1.6353,1.6492,1.6553,1.6672,1.6761,1.6924,1.6957,1.7043,1.712,1.7178,1.7215,1.7206,1.7211,1.7203,1.7327,1.73,1.7308,1.7254,1.7256,1.7258,1.7315,0,1.5715,1.5898,1.6002,1.6143,1.6244,1.6342,1.643,1.6544,1.6632,1.6732,1.6829,1.6943,1.6977,1.7029,1.7091,1.7197,1.7242,1.7194,1.734,1.7343,1.7301,1.732,1.7292,1.734,1.7324,1.7326,1.7327,0,1.5788,1.5904,1.6055,1.6214,1.6261,1.6337,1.6473,1.6567,1.67,1.676,1.6855,1.6932,1.7044,1.7055,1.7212,1.7177,1.7243,1.7304,1.7309,1.7327,1.7336,1.7339,1.7358,1.7365,1.7342,1.7341,1.734,0,1.5743,1.5938,1.6053,1.6117,1.6305,1.6357,1.6438,1.657,1.6647,1.6766,1.6818,1.6948,1.702,1.7121,1.7232,1.7229,1.7378,1.7398,1.7432,1.7429,1.7459,1.7456,1.7489,1.75,1.75,1.7499,1.7499,0,1.5779,1.5868,1.6036,1.6107,1.6209,1.6328,1.6427,1.6516,1.6632,1.6724,1.6816,1.69,1.7041,1.7143,1.7231,1.7347,1.7379,1.7432,1.7454,1.7424,1.7417,1.7469,1.7469,1.7502,1.7501,1.7501,1.75,0,1.5747,1.5862,1.5995,1.6162,1.6206,1.6274,1.6419,1.6492,1.6584,1.6698,1.6732,1.6877,1.7002,1.7122,1.729,1.7349,1.7466,1.7495,1.742,1.7433,1.746,1.7456,1.7528,1.7544,1.7542,1.7542,1.7542,0,1.5762,1.5833,1.6007,1.6074,1.6153,1.626,1.6338,1.6458,1.6537,1.6693,1.6748,1.6879,1.6991,1.7186,1.7307,1.7436,1.747,1.7486,1.749,1.7458,1.7471,1.7466,1.7474,1.7483,1.7483,1.7482,1.7482,0,1.5778,1.5832,1.5941,1.607,1.6161,1.6269,1.6381,1.6431,1.6572,1.6656,1.6784,1.687,1.7041,1.7171,1.7314,1.7399,1.7465,1.748,1.7495,1.7465,1.7419,1.7445,1.7413,1.7478,1.7478,1.7479,1.7479,1.7479,1.5771,1.5838,1.5971,1.609,1.6186,1.6288,1.6365,1.6467,1.6575,1.6722,1.6787,1.6916,1.7049,1.7247,1.7332,1.7436,1.7452,1.7473,1.7478,1.7482,1.7475,1.7401,1.7462,1.7463,1.7463,1.7463,1.7463,0,1.5792,1.5882,1.599,1.6143,1.6236,1.6288,1.6414,1.649,1.6602,1.6719,1.6826,1.6974,1.71,1.7231,1.7365,1.7423,1.7457,1.7455,1.7452,1.7471,1.7453,1.7427,1.7425,1.7425,1.7425,1.7425,1.7425,1.7425,1.5814,1.5931,1.6,1.6166,1.6257,1.6383,1.645,1.6545,1.6639,1.6799,1.6904,1.6988,1.7112,1.7255,1.7374,1.741,1.7455,1.7444,1.7488,1.747,1.7472,1.7474,1.745,1.7453,1.7453,1.7497,1.7498,1.7498]},{"header":{"parameterUnit":"m.s-1","parameterCategory":1,"la1":30.2991,"la2":30.254,"lo1":-89.0895,"lo2":-89.0444,"dy":0.0017,"dx":0.0017,"nx":28,"ny":28,"refTime":"2024-07-25T03:00:00:Z","depth":0,"parameterNumber":3,"parameterNumberName":"V-component_of_WINDS"},"data":[0,0,0,0,0,0,0,0,0,0,0,0,0,0,0,0,0,0,0,0,0,0,0,0,0,0,0,0,0,0,0,0,0,0,0,0,0,0,0,0,0,0,0,0,0,0,0,0,0,0,0,0,0,0,0,0,0,0,1.2755,1.2756,0,1.2852,1.2853,1.2854,1.29,1.29,1.29,1.29,1.2999,1.3002,1.3005,0,0,0,0,0,0,0,0,0,0,0,0,0,1.2606,1.2608,1.2754,1.2756,1.2757,1.2852,1.2853,1.2855,1.29,1.29,1.29,1.29,1.2998,1.3002,1.3005,0,0,0,0,0,0,0,0,0,0,0,0,0,1.2683,1.2609,1.2754,1.2791,1.2795,1.2852,1.2853,1.2855,1.29,1.29,1.29,1.29,1.2997,1.3001,1.3005,1.3032,0,0,1.3018,1.302,0,0,0,0,0,0,0,0,1.2679,1.2689,1.2784,1.2789,1.2793,1.2864,1.2837,1.2914,1.29,1.286,1.29,1.29,1.2954,1.2962,1.298,1.3037,1.3041,1.3018,1.3021,1.3022,1.3023,0,0,0,0,0,0,0,1.2674,1.2685,1.2793,1.2786,1.2791,1.2802,1.2813,1.2852,1.2907,1.2864,1.2867,1.2878,1.2957,1.2976,1.2983,1.3043,1.3018,1.3022,1.3024,1.3026,1.3126,1.3126,0,0,0,0,0,0,1.2662,1.268,1.279,1.2796,1.2735,1.2805,1.2817,1.2841,1.2906,1.2916,1.2878,1.288,1.297,1.2978,1.2987,1.3023,1.3022,1.3026,1.3028,1.3126,1.3126,1.3126,0,0,0,0,0,0,1.2659,1.2672,1.2786,1.2739,1.2754,1.2808,1.2834,1.2843,1.2863,1.2917,1.2927,1.2888,1.297,1.2981,1.3021,1.3027,1.3028,1.3032,1.3125,1.3126,1.3126,1.3094,0,0,0,0,0,0,1.2654,1.267,1.2682,1.2739,1.2757,1.2819,1.2835,1.2845,1.287,1.2873,1.293,1.2939,1.2971,1.3014,1.3025,1.3032,1.3035,1.3125,1.3125,1.3126,1.3095,1.3094,1.3092,0,0,0,0,0,1.2649,1.2669,1.2682,1.2695,1.2772,1.2819,1.2829,1.2866,1.287,1.2882,1.2916,1.2937,1.3024,1.3018,1.303,1.3039,1.3125,1.3125,1.3126,1.3096,1.3094,1.3092,0,0,0,0,0,0,1.2611,1.2677,1.2692,1.2731,1.2769,1.2827,1.2842,1.2862,1.29,1.2901,1.2944,1.2957,1.2992,1.302,1.3012,1.3068,1.3076,1.3079,1.3049,1.3048,1.3047,1.304,1.3038,0,0,0,0,0,1.2607,1.264,1.2696,1.2725,1.2743,1.2789,1.2811,1.2835,1.2876,1.2893,1.293,1.2969,1.3005,1.3028,1.3064,1.3099,1.3112,1.3111,1.3109,1.3108,1.311,1.313,1.3131,1.3128,1.3128,1.3128,0,0,1.2599,1.2639,1.2657,1.2718,1.275,1.2783,1.2802,1.2836,1.2861,1.2898,1.2937,1.2966,1.3012,1.3049,1.3067,1.3073,1.3114,1.3109,1.3107,1.311,1.3131,1.3131,1.3131,1.3128,1.3128,1.3128,0,0,1.2602,1.2636,1.2663,1.2695,1.2743,1.2774,1.278,1.2834,1.2855,1.2895,1.2924,1.2953,1.3014,1.3046,1.307,1.3083,1.3103,1.3093,1.3086,1.3105,1.3105,1.3106,1.311,1.3112,1.3095,1.3095,1.3095,0,1.2586,1.2637,1.2675,1.2707,1.2732,1.2767,1.2795,1.2824,1.2881,1.2898,1.2903,1.298,1.3014,1.3059,1.3062,1.308,1.3088,1.3088,1.3102,1.3103,1.3104,1.3109,1.3111,1.3094,1.3094,1.3094,1.3094,0,1.2615,1.265,1.2666,1.2721,1.2748,1.2777,1.2819,1.2842,1.2864,1.2894,1.2934,1.2975,1.302,1.3032,1.3054,1.308,1.3082,1.3094,1.3103,1.3102,1.3108,1.311,1.3091,1.3092,1.3092,1.3093,0,0,1.2598,1.2672,1.2678,1.2703,1.2758,1.2785,1.2816,1.2859,1.2878,1.2916,1.2943,1.2993,1.3005,1.3032,1.3057,1.3074,1.3081,1.3084,1.3086,1.3083,1.3112,1.3103,1.3105,1.3095,1.3095,1.3096,1.3109,0,1.2609,1.2666,1.27,1.2744,1.2776,1.2808,1.2835,1.2871,1.2899,1.293,1.2961,1.2996,1.3009,1.3025,1.3043,1.3077,1.3088,1.3076,1.312,1.3121,1.3108,1.3108,1.3098,1.3109,1.3111,1.3111,1.3112,0,1.2629,1.2666,1.2713,1.2763,1.2778,1.2801,1.2844,1.2873,1.2915,1.2934,1.2963,1.2989,1.3022,1.3027,1.3074,1.3065,1.3085,1.3104,1.3105,1.3111,1.3117,1.3114,1.3113,1.3115,1.3115,1.3115,1.3115,0,1.2612,1.2674,1.2709,1.2729,1.2789,1.2805,1.2831,1.2872,1.2896,1.2933,1.2949,1.2989,1.3011,1.3041,1.3076,1.3077,1.3119,1.3128,1.3136,1.3135,1.3144,1.3144,1.3147,1.3156,1.3156,1.3156,1.3156,0,1.2621,1.2648,1.2702,1.2724,1.2755,1.2794,1.2823,1.2851,1.2888,1.2915,1.2945,1.2971,1.3015,1.3046,1.3074,1.3108,1.3118,1.3134,1.3141,1.3132,1.313,1.3146,1.3146,1.3156,1.3156,1.3156,1.3156,0,1.2608,1.2645,1.2686,1.2739,1.2753,1.2773,1.2819,1.2841,1.287,1.2904,1.2915,1.296,1.2998,1.3036,1.3086,1.3105,1.3139,1.3148,1.3125,1.3129,1.3135,1.3134,1.315,1.3154,1.3159,1.3159,1.3159,0,1.2612,1.2633,1.2688,1.2709,1.2733,1.2766,1.279,1.2829,1.2853,1.2901,1.2917,1.2957,1.2991,1.3049,1.3087,1.3125,1.3136,1.3139,1.3142,1.3132,1.3137,1.3135,1.3138,1.3138,1.3138,1.3137,1.3137,0,1.2614,1.2631,1.2665,1.2705,1.2733,1.2766,1.28,1.2815,1.286,1.2885,1.2924,1.295,1.3001,1.304,1.3083,1.311,1.3131,1.3136,1.314,1.3131,1.3116,1.3125,1.3121,1.3135,1.3136,1.3136,1.3136,1.3136,1.261,1.263,1.2672,1.2708,1.2738,1.2769,1.2792,1.2823,1.2856,1.2901,1.2921,1.296,1.3,1.306,1.3086,1.3116,1.3122,1.3128,1.313,1.3131,1.3128,1.3111,1.3124,1.3124,1.3124,1.3125,1.3125,0,1.2614,1.2642,1.2675,1.2722,1.275,1.2767,1.2805,1.2828,1.2861,1.2897,1.2929,1.2973,1.3011,1.3051,1.3091,1.3108,1.3118,1.3117,1.3117,1.3122,1.3121,1.3114,1.3108,1.3108,1.3108,1.3108,1.3108,1.3108,1.262,1.2655,1.2676,1.2726,1.2754,1.2792,1.2812,1.2841,1.287,1.2917,1.2948,1.2974,1.3011,1.3054,1.3089,1.31,1.3114,1.3109,1.3123,1.3121,1.3122,1.3124,1.3117,1.3112,1.3112,1.3122,1.3122,1.3122]}]]